Year,Month,Day,Hour,Minute,Value (Times are PST for temperature in C)
2012,03,11,00,00,4.40
2012,03,11,00,01,4.40
2012,03,11,00,02,4.40
2012,03,11,00,03,4.40
2012,03,11,00,04,4.30
2012,03,11,00,05,4.30
2012,03,11,00,06,4.30
2012,03,11,00,07,4.30
2012,03,11,00,08,4.30
2012,03,11,00,09,4.30
2012,03,11,00,10,4.30
2012,03,11,00,11,4.30
2012,03,11,00,12,4.30
2012,03,11,00,13,4.30
2012,03,11,00,14,4.30
2012,03,11,00,15,4.30
2012,03,11,00,16,4.20
2012,03,11,00,17,4.20
2012,03,11,00,18,4.20
2012,03,11,00,19,4.20
2012,03,11,00,20,4.20
2012,03,11,00,21,4.20
2012,03,11,00,22,4.10
2012,03,11,00,23,4.10
2012,03,11,00,24,4.10
2012,03,11,00,25,4.10
2012,03,11,00,26,4.10
2012,03,11,00,27,4.10
2012,03,11,00,28,4.10
2012,03,11,00,29,4.10
2012,03,11,00,30,4.10
2012,03,11,00,31,4.10
2012,03,11,00,32,4.10
2012,03,11,00,33,4.10
2012,03,11,00,34,4.10
2012,03,11,00,35,4.20
2012,03,11,00,36,4.20
2012,03,11,00,37,4.20
2012,03,11,00,38,4.20
2012,03,11,00,39,4.20
2012,03,11,00,40,4.20
2012,03,11,00,41,4.20
2012,03,11,00,42,4.20
2012,03,11,00,43,4.20
2012,03,11,00,44,4.20
2012,03,11,00,45,4.20
2012,03,11,00,46,4.20
2012,03,11,00,47,4.10
2012,03,11,00,48,4.10
2012,03,11,00,49,4.00
2012,03,11,00,50,4.00
2012,03,11,00,51,3.90
2012,03,11,00,52,3.90
2012,03,11,00,53,3.90
2012,03,11,00,54,3.90
2012,03,11,00,55,3.90
2012,03,11,00,56,3.90
2012,03,11,00,57,3.90
2012,03,11,00,58,3.90
2012,03,11,00,59,3.90
2012,03,11,01,00,3.90
2012,03,11,01,01,3.90
2012,03,11,01,02,3.90
2012,03,11,01,03,3.90
2012,03,11,01,04,3.90
2012,03,11,01,05,3.90
2012,03,11,01,06,3.90
2012,03,11,01,07,3.90
2012,03,11,01,08,3.90
2012,03,11,01,09,3.90
2012,03,11,01,10,3.90
2012,03,11,01,11,3.90
2012,03,11,01,12,3.90
2012,03,11,01,13,3.90
2012,03,11,01,14,3.90
2012,03,11,01,15,3.90
2012,03,11,01,16,3.90
2012,03,11,01,17,3.90
2012,03,11,01,18,3.80
2012,03,11,01,19,3.80
2012,03,11,01,20,3.80
2012,03,11,01,21,3.90
2012,03,11,01,22,3.90
2012,03,11,01,23,3.90
2012,03,11,01,24,3.90
2012,03,11,01,25,3.90
2012,03,11,01,26,3.90
2012,03,11,01,27,3.90
2012,03,11,01,28,3.90
2012,03,11,01,29,3.90
2012,03,11,01,30,3.90
2012,03,11,01,31,3.90
2012,03,11,01,32,3.90
2012,03,11,01,33,3.90
2012,03,11,01,34,3.90
2012,03,11,01,35,3.90
2012,03,11,01,36,3.90
2012,03,11,01,37,3.90
2012,03,11,01,38,4.00
2012,03,11,01,39,4.00
2012,03,11,01,40,4.10
2012,03,11,01,41,4.10
2012,03,11,01,42,4.10
2012,03,11,01,43,4.10
2012,03,11,01,44,4.10
2012,03,11,01,45,4.10
2012,03,11,01,46,4.10
2012,03,11,01,47,4.10
2012,03,11,01,48,4.10
2012,03,11,01,49,4.10
2012,03,11,01,50,4.10
2012,03,11,01,51,4.10
2012,03,11,01,52,4.00
2012,03,11,01,53,4.00
2012,03,11,01,54,3.90
2012,03,11,01,55,3.90
2012,03,11,01,56,4.00
2012,03,11,01,57,3.90
2012,03,11,01,58,3.90
2012,03,11,01,59,3.90
2012,03,11,03,00,3.90
2012,03,11,03,01,3.90
2012,03,11,03,02,3.90
2012,03,11,03,03,3.90
2012,03,11,03,04,3.90
2012,03,11,03,05,3.90
2012,03,11,03,06,3.90
2012,03,11,03,07,3.90
2012,03,11,03,08,3.90
2012,03,11,03,09,3.90
2012,03,11,03,10,4.00
2012,03,11,03,11,4.00
2012,03,11,03,12,4.00
2012,03,11,03,13,3.90
2012,03,11,03,14,3.90
2012,03,11,03,15,4.00
2012,03,11,03,16,4.00
2012,03,11,03,17,4.00
2012,03,11,03,18,4.10
2012,03,11,03,19,4.10
2012,03,11,03,20,4.10
2012,03,11,03,21,4.10
2012,03,11,03,22,4.10
2012,03,11,03,23,4.10
2012,03,11,03,24,4.10
2012,03,11,03,25,4.10
2012,03,11,03,26,4.00
2012,03,11,03,27,4.00
2012,03,11,03,28,4.00
2012,03,11,03,29,4.00
2012,03,11,03,30,4.00
2012,03,11,03,31,3.90
2012,03,11,03,32,3.90
2012,03,11,03,33,3.90
2012,03,11,03,34,3.80
2012,03,11,03,35,3.80
2012,03,11,03,36,3.80
2012,03,11,03,37,3.70
2012,03,11,03,38,3.70
2012,03,11,03,39,3.70
2012,03,11,03,40,3.60
2012,03,11,03,41,3.60
2012,03,11,03,42,3.60
2012,03,11,03,43,3.60
2012,03,11,03,44,3.60
2012,03,11,03,45,3.60
2012,03,11,03,46,3.50
2012,03,11,03,47,3.50
2012,03,11,03,48,3.50
2012,03,11,03,49,3.50
2012,03,11,03,50,3.40
2012,03,11,03,51,3.40
2012,03,11,03,52,3.40
2012,03,11,03,53,3.40
2012,03,11,03,54,3.40
2012,03,11,03,55,3.40
2012,03,11,03,56,3.50
2012,03,11,03,57,3.50
2012,03,11,03,58,3.50
2012,03,11,03,59,3.50
2012,03,11,04,00,3.50
2012,03,11,04,01,3.40
2012,03,11,04,02,3.40
2012,03,11,04,03,3.40
2012,03,11,04,04,3.40
2012,03,11,04,05,3.40
2012,03,11,04,06,3.40
2012,03,11,04,07,3.40
2012,03,11,04,08,3.30
2012,03,11,04,09,3.30
2012,03,11,04,10,3.30
2012,03,11,04,11,3.30
2012,03,11,04,12,3.30
2012,03,11,04,13,3.30
2012,03,11,04,14,3.30
2012,03,11,04,15,3.30
2012,03,11,04,16,3.30
2012,03,11,04,17,3.30
2012,03,11,04,18,3.30
2012,03,11,04,19,3.40
2012,03,11,04,20,3.40
2012,03,11,04,21,3.40
2012,03,11,04,22,3.40
2012,03,11,04,23,3.40
2012,03,11,04,24,3.40
2012,03,11,04,25,3.40
2012,03,11,04,26,3.40
2012,03,11,04,27,3.40
2012,03,11,04,28,3.30
2012,03,11,04,29,3.30
2012,03,11,04,30,3.20
2012,03,11,04,31,3.20
2012,03,11,04,32,3.30
2012,03,11,04,33,3.30
2012,03,11,04,34,3.30
2012,03,11,04,35,3.30
2012,03,11,04,36,3.30
2012,03,11,04,37,3.20
2012,03,11,04,38,3.20
2012,03,11,04,39,3.20
2012,03,11,04,40,3.20
2012,03,11,04,41,3.20
2012,03,11,04,42,3.20
2012,03,11,04,43,3.10
2012,03,11,04,44,3.10
2012,03,11,04,45,3.10
2012,03,11,04,46,3.10
2012,03,11,04,47,3.10
2012,03,11,04,48,3.10
2012,03,11,04,49,3.10
2012,03,11,04,50,3.10
2012,03,11,04,51,3.10
2012,03,11,04,52,3.10
2012,03,11,04,53,3.20
2012,03,11,04,54,3.20
2012,03,11,04,55,3.20
2012,03,11,04,56,3.20
2012,03,11,04,57,3.30
2012,03,11,04,58,3.30
2012,03,11,04,59,3.30
2012,03,11,05,00,3.30
2012,03,11,05,01,3.30
2012,03,11,05,02,3.30
2012,03,11,05,03,3.30
2012,03,11,05,04,3.30
2012,03,11,05,05,3.40
2012,03,11,05,06,3.30
2012,03,11,05,07,3.30
2012,03,11,05,08,3.30
2012,03,11,05,09,3.30
2012,03,11,05,10,3.30
2012,03,11,05,11,3.30
2012,03,11,05,12,3.30
2012,03,11,05,13,3.30
2012,03,11,05,14,3.20
2012,03,11,05,15,3.20
2012,03,11,05,16,3.20
2012,03,11,05,17,3.20
2012,03,11,05,18,3.20
2012,03,11,05,19,3.20
2012,03,11,05,20,3.10
2012,03,11,05,21,3.10
2012,03,11,05,22,3.10
2012,03,11,05,23,3.10
2012,03,11,05,24,3.10
2012,03,11,05,25,3.10
2012,03,11,05,26,3.20
2012,03,11,05,27,3.20
2012,03,11,05,28,3.20
2012,03,11,05,29,3.20
2012,03,11,05,30,3.20
2012,03,11,05,31,3.10
2012,03,11,05,32,3.10
2012,03,11,05,33,3.10
2012,03,11,05,34,3.00
2012,03,11,05,35,3.00
2012,03,11,05,36,3.00
2012,03,11,05,37,3.00
2012,03,11,05,38,3.00
2012,03,11,05,39,3.00
2012,03,11,05,40,3.00
2012,03,11,05,41,3.00
2012,03,11,05,42,3.00
2012,03,11,05,43,3.00
2012,03,11,05,44,3.00
2012,03,11,05,45,3.00
2012,03,11,05,46,3.10
2012,03,11,05,47,3.10
2012,03,11,05,48,3.10
2012,03,11,05,49,3.10
2012,03,11,05,50,3.20
2012,03,11,05,51,3.20
2012,03,11,05,52,3.30
2012,03,11,05,53,3.30
2012,03,11,05,54,3.30
2012,03,11,05,55,3.30
2012,03,11,05,56,3.30
2012,03,11,05,57,3.30
2012,03,11,05,58,3.30
2012,03,11,05,59,3.30
2012,03,11,06,00,3.30
2012,03,11,06,01,3.20
2012,03,11,06,02,3.30
2012,03,11,06,03,3.30
2012,03,11,06,04,3.30
2012,03,11,06,05,3.40
2012,03,11,06,06,3.40
2012,03,11,06,07,3.40
2012,03,11,06,08,3.40
2012,03,11,06,09,3.50
2012,03,11,06,10,3.50
2012,03,11,06,11,3.50
2012,03,11,06,12,3.50
2012,03,11,06,13,3.60
2012,03,11,06,14,3.60
2012,03,11,06,15,3.50
2012,03,11,06,16,3.50
2012,03,11,06,17,3.50
2012,03,11,06,18,3.50
2012,03,11,06,19,3.50
2012,03,11,06,20,3.50
2012,03,11,06,21,3.40
2012,03,11,06,22,3.40
2012,03,11,06,23,3.30
2012,03,11,06,24,3.30
2012,03,11,06,25,3.20
2012,03,11,06,26,3.20
2012,03,11,06,27,3.10
2012,03,11,06,28,3.20
2012,03,11,06,29,3.20
2012,03,11,06,30,3.20
2012,03,11,06,31,3.20
2012,03,11,06,32,3.20
2012,03,11,06,33,3.20
2012,03,11,06,34,3.20
2012,03,11,06,35,3.20
2012,03,11,06,36,3.20
2012,03,11,06,37,3.10
2012,03,11,06,38,3.10
2012,03,11,06,39,3.10
2012,03,11,06,40,3.10
2012,03,11,06,41,3.10
2012,03,11,06,42,3.00
2012,03,11,06,43,3.00
2012,03,11,06,44,3.00
2012,03,11,06,45,3.00
2012,03,11,06,46,3.00
2012,03,11,06,47,3.00
2012,03,11,06,48,3.00
2012,03,11,06,49,3.00
2012,03,11,06,50,3.00
2012,03,11,06,51,2.90
2012,03,11,06,52,2.90
2012,03,11,06,53,2.90
2012,03,11,06,54,2.90
2012,03,11,06,55,2.90
2012,03,11,06,56,2.80
2012,03,11,06,57,2.80
2012,03,11,06,58,2.70
2012,03,11,06,59,2.70
2012,03,11,07,00,2.60
2012,03,11,07,01,2.60
2012,03,11,07,02,2.50
2012,03,11,07,03,2.50
2012,03,11,07,04,2.50
2012,03,11,07,05,2.40
2012,03,11,07,06,2.40
2012,03,11,07,07,2.40
2012,03,11,07,08,2.30
2012,03,11,07,09,2.30
2012,03,11,07,10,2.30
2012,03,11,07,11,2.30
2012,03,11,07,12,2.30
2012,03,11,07,13,2.30
2012,03,11,07,14,2.30
2012,03,11,07,15,2.30
2012,03,11,07,16,2.30
2012,03,11,07,17,2.20
2012,03,11,07,18,2.20
2012,03,11,07,19,2.20
2012,03,11,07,20,2.30
2012,03,11,07,21,2.30
2012,03,11,07,22,2.30
2012,03,11,07,23,2.30
2012,03,11,07,24,2.30
2012,03,11,07,25,2.30
2012,03,11,07,26,2.30
2012,03,11,07,27,2.30
2012,03,11,07,28,2.30
2012,03,11,07,29,2.30
2012,03,11,07,30,2.30
2012,03,11,07,31,2.30
2012,03,11,07,32,2.30
2012,03,11,07,33,2.30
2012,03,11,07,34,2.30
2012,03,11,07,35,2.30
2012,03,11,07,36,2.30
2012,03,11,07,37,2.30
2012,03,11,07,38,2.30
2012,03,11,07,39,2.30
2012,03,11,07,40,2.30
2012,03,11,07,41,2.30
2012,03,11,07,42,2.30
2012,03,11,07,43,2.30
2012,03,11,07,44,2.30
2012,03,11,07,45,2.30
2012,03,11,07,46,2.30
2012,03,11,07,47,2.30
2012,03,11,07,48,2.30
2012,03,11,07,49,2.30
2012,03,11,07,50,2.30
2012,03,11,07,51,2.30
2012,03,11,07,52,2.30
2012,03,11,07,53,2.40
2012,03,11,07,54,2.50
2012,03,11,07,55,2.60
2012,03,11,07,56,2.60
2012,03,11,07,57,2.60
2012,03,11,07,58,2.50
2012,03,11,07,59,2.40
2012,03,11,08,00,2.40
2012,03,11,08,01,2.30
2012,03,11,08,02,2.30
2012,03,11,08,03,2.30
2012,03,11,08,04,2.30
2012,03,11,08,05,2.30
2012,03,11,08,06,2.30
2012,03,11,08,07,2.20
2012,03,11,08,08,2.20
2012,03,11,08,09,2.20
2012,03,11,08,10,2.20
2012,03,11,08,11,2.20
2012,03,11,08,12,2.30
2012,03,11,08,13,2.30
2012,03,11,08,14,2.30
2012,03,11,08,15,2.30
2012,03,11,08,16,2.30
2012,03,11,08,17,2.20
2012,03,11,08,18,2.30
2012,03,11,08,19,2.30
2012,03,11,08,20,2.30
2012,03,11,08,21,2.30
2012,03,11,08,22,2.30
2012,03,11,08,23,2.30
2012,03,11,08,24,2.30
2012,03,11,08,25,2.30
2012,03,11,08,26,2.30
2012,03,11,08,27,2.30
2012,03,11,08,28,2.30
2012,03,11,08,29,2.30
2012,03,11,08,30,2.30
2012,03,11,08,31,2.30
2012,03,11,08,32,2.30
2012,03,11,08,33,2.30
2012,03,11,08,34,2.30
2012,03,11,08,35,2.30
2012,03,11,08,36,2.30
2012,03,11,08,37,2.30
2012,03,11,08,38,2.20
2012,03,11,08,39,2.20
2012,03,11,08,40,2.20
2012,03,11,08,41,2.20
2012,03,11,08,42,2.20
2012,03,11,08,43,2.20
2012,03,11,08,44,2.20
2012,03,11,08,45,2.30
2012,03,11,08,46,2.30
2012,03,11,08,47,2.40
2012,03,11,08,48,2.40
2012,03,11,08,49,2.50
2012,03,11,08,50,2.50
2012,03,11,08,51,2.60
2012,03,11,08,52,2.70
2012,03,11,08,53,2.70
2012,03,11,08,54,2.80
2012,03,11,08,55,2.80
2012,03,11,08,56,2.90
2012,03,11,08,57,2.90
2012,03,11,08,58,2.90
2012,03,11,08,59,2.90
2012,03,11,09,00,2.90
2012,03,11,09,01,2.90
2012,03,11,09,02,3.00
2012,03,11,09,03,3.00
2012,03,11,09,04,2.90
2012,03,11,09,05,2.90
2012,03,11,09,06,2.90
2012,03,11,09,07,3.00
2012,03,11,09,08,3.00
2012,03,11,09,09,3.10
2012,03,11,09,10,3.10
2012,03,11,09,11,3.00
2012,03,11,09,12,3.00
2012,03,11,09,13,3.00
2012,03,11,09,14,3.00
2012,03,11,09,15,2.90
2012,03,11,09,16,2.90
2012,03,11,09,17,2.90
2012,03,11,09,18,2.90
2012,03,11,09,19,2.90
2012,03,11,09,20,3.00
2012,03,11,09,21,3.00
2012,03,11,09,22,3.00
2012,03,11,09,23,3.00
2012,03,11,09,24,3.00
2012,03,11,09,25,3.00
2012,03,11,09,26,3.00
2012,03,11,09,27,3.00
2012,03,11,09,28,3.10
2012,03,11,09,29,3.10
2012,03,11,09,30,3.10
2012,03,11,09,31,3.10
2012,03,11,09,32,3.10
2012,03,11,09,33,3.10
2012,03,11,09,34,3.10
2012,03,11,09,35,3.20
2012,03,11,09,36,3.20
2012,03,11,09,37,3.20
2012,03,11,09,38,3.20
2012,03,11,09,39,3.20
2012,03,11,09,40,3.20
2012,03,11,09,41,3.30
2012,03,11,09,42,3.40
2012,03,11,09,43,3.50
2012,03,11,09,44,3.60
2012,03,11,09,45,3.80
2012,03,11,09,46,3.80
2012,03,11,09,47,3.90
2012,03,11,09,48,4.00
2012,03,11,09,49,4.10
2012,03,11,09,50,4.20
2012,03,11,09,51,4.20
2012,03,11,09,52,4.30
2012,03,11,09,53,4.30
2012,03,11,09,54,4.40
2012,03,11,09,55,4.50
2012,03,11,09,56,4.60
2012,03,11,09,57,4.70
2012,03,11,09,58,4.80
2012,03,11,09,59,4.80
2012,03,11,10,00,4.90
2012,03,11,10,01,4.90
2012,03,11,10,02,4.90
2012,03,11,10,03,4.90
2012,03,11,10,04,4.90
2012,03,11,10,05,4.90
2012,03,11,10,06,4.80
2012,03,11,10,07,4.80
2012,03,11,10,08,4.70
2012,03,11,10,09,4.60
2012,03,11,10,10,4.60
2012,03,11,10,11,4.50
2012,03,11,10,12,4.40
2012,03,11,10,13,4.40
2012,03,11,10,14,4.30
2012,03,11,10,15,4.20
2012,03,11,10,16,4.10
2012,03,11,10,17,4.10
2012,03,11,10,18,4.00
2012,03,11,10,19,3.90
2012,03,11,10,20,3.90
2012,03,11,10,21,3.80
2012,03,11,10,22,3.70
2012,03,11,10,23,3.60
2012,03,11,10,24,3.50
2012,03,11,10,25,3.50
2012,03,11,10,26,3.40
2012,03,11,10,27,3.40
2012,03,11,10,28,3.40
2012,03,11,10,29,3.40
2012,03,11,10,30,3.40
2012,03,11,10,31,3.50
2012,03,11,10,32,3.60
2012,03,11,10,33,3.70
2012,03,11,10,34,3.80
2012,03,11,10,35,3.80
2012,03,11,10,36,3.90
2012,03,11,10,37,4.00
2012,03,11,10,38,4.10
2012,03,11,10,39,4.20
2012,03,11,10,40,4.30
2012,03,11,10,41,4.40
2012,03,11,10,42,4.50
2012,03,11,10,43,4.60
2012,03,11,10,44,4.70
2012,03,11,10,45,4.70
2012,03,11,10,46,4.80
2012,03,11,10,47,4.90
2012,03,11,10,48,5.00
2012,03,11,10,49,5.10
2012,03,11,10,50,5.20
2012,03,11,10,51,5.30
2012,03,11,10,52,5.40
2012,03,11,10,53,5.50
2012,03,11,10,54,5.60
2012,03,11,10,55,5.70
2012,03,11,10,56,5.70
2012,03,11,10,57,5.80
2012,03,11,10,58,5.80
2012,03,11,10,59,5.80
2012,03,11,11,00,5.80
2012,03,11,11,01,5.70
2012,03,11,11,02,5.60
2012,03,11,11,03,5.50
2012,03,11,11,04,5.40
2012,03,11,11,05,5.30
2012,03,11,11,06,5.20
2012,03,11,11,07,5.10
2012,03,11,11,08,5.00
2012,03,11,11,09,4.90
2012,03,11,11,10,4.80
2012,03,11,11,11,4.80
2012,03,11,11,12,4.80
2012,03,11,11,13,4.80
2012,03,11,11,14,4.80
2012,03,11,11,15,4.80
2012,03,11,11,16,4.80
2012,03,11,11,17,4.80
2012,03,11,11,18,4.70
2012,03,11,11,19,4.60
2012,03,11,11,20,4.50
2012,03,11,11,21,4.40
2012,03,11,11,22,4.30
2012,03,11,11,23,4.30
2012,03,11,11,24,4.20
2012,03,11,11,25,4.20
2012,03,11,11,26,4.20
2012,03,11,11,27,4.20
2012,03,11,11,28,4.30
2012,03,11,11,29,4.30
2012,03,11,11,30,4.30
2012,03,11,11,31,4.30
2012,03,11,11,32,4.40
2012,03,11,11,33,4.40
2012,03,11,11,34,4.50
2012,03,11,11,35,4.60
2012,03,11,11,36,4.60
2012,03,11,11,37,4.60
2012,03,11,11,38,4.70
2012,03,11,11,39,4.80
2012,03,11,11,40,4.90
2012,03,11,11,41,4.90
2012,03,11,11,42,5.00
2012,03,11,11,43,5.10
2012,03,11,11,44,5.20
2012,03,11,11,45,5.30
2012,03,11,11,46,5.30
2012,03,11,11,47,5.40
2012,03,11,11,48,5.50
2012,03,11,11,49,5.60
2012,03,11,11,50,5.60
2012,03,11,11,51,5.50
2012,03,11,11,52,5.50
2012,03,11,11,53,5.40
2012,03,11,11,54,5.30
2012,03,11,11,55,5.30
2012,03,11,11,56,5.30
2012,03,11,11,57,5.30
2012,03,11,11,58,5.30
2012,03,11,11,59,5.30
2012,03,11,12,00,5.30
2012,03,11,12,01,5.30
2012,03,11,12,02,5.40
2012,03,11,12,03,5.40
2012,03,11,12,04,5.40
2012,03,11,12,05,5.50
2012,03,11,12,06,5.60
2012,03,11,12,07,5.60
2012,03,11,12,08,5.60
2012,03,11,12,09,5.60
2012,03,11,12,10,5.60
2012,03,11,12,11,5.60
2012,03,11,12,12,5.60
2012,03,11,12,13,5.70
2012,03,11,12,14,5.80
2012,03,11,12,15,5.90
2012,03,11,12,16,6.00
2012,03,11,12,17,6.00
2012,03,11,12,18,6.00
2012,03,11,12,19,6.10
2012,03,11,12,20,6.20
2012,03,11,12,21,6.20
2012,03,11,12,22,6.10
2012,03,11,12,23,6.10
2012,03,11,12,24,6.10
2012,03,11,12,25,6.00
2012,03,11,12,26,6.00
2012,03,11,12,27,6.10
2012,03,11,12,28,6.00
2012,03,11,12,29,6.00
2012,03,11,12,30,5.90
2012,03,11,12,31,5.90
2012,03,11,12,32,5.90
2012,03,11,12,33,5.90
2012,03,11,12,34,6.00
2012,03,11,12,35,6.00
2012,03,11,12,36,6.10
2012,03,11,12,37,6.10
2012,03,11,12,38,6.00
2012,03,11,12,39,6.00
2012,03,11,12,40,6.00
2012,03,11,12,41,5.90
2012,03,11,12,42,5.90
2012,03,11,12,43,5.90
2012,03,11,12,44,5.80
2012,03,11,12,45,5.70
2012,03,11,12,46,5.70
2012,03,11,12,47,5.60
2012,03,11,12,48,5.60
2012,03,11,12,49,5.60
2012,03,11,12,50,5.70
2012,03,11,12,51,5.70
2012,03,11,12,52,5.70
2012,03,11,12,53,5.70
2012,03,11,12,54,5.80
2012,03,11,12,55,6.00
2012,03,11,12,56,6.10
2012,03,11,12,57,6.20
2012,03,11,12,58,6.30
2012,03,11,12,59,6.30
2012,03,11,13,00,6.30
2012,03,11,13,01,6.30
2012,03,11,13,02,6.40
2012,03,11,13,03,6.40
2012,03,11,13,04,6.30
2012,03,11,13,05,6.30
2012,03,11,13,06,6.30
2012,03,11,13,07,6.40
2012,03,11,13,08,6.40
2012,03,11,13,09,6.30
2012,03,11,13,10,6.30
2012,03,11,13,11,6.30
2012,03,11,13,12,6.40
2012,03,11,13,13,6.30
2012,03,11,13,14,6.30
2012,03,11,13,15,6.20
2012,03,11,13,16,6.00
2012,03,11,13,17,5.80
2012,03,11,13,18,5.50
2012,03,11,13,19,5.20
2012,03,11,13,20,4.70
2012,03,11,13,21,4.30
2012,03,11,13,22,4.00
2012,03,11,13,23,3.70
2012,03,11,13,24,3.40
2012,03,11,13,25,3.20
2012,03,11,13,26,3.10
2012,03,11,13,27,3.00
2012,03,11,13,28,2.90
2012,03,11,13,29,2.80
2012,03,11,13,30,2.80
2012,03,11,13,31,2.80
2012,03,11,13,32,2.90
2012,03,11,13,33,2.90
2012,03,11,13,34,3.00
2012,03,11,13,35,3.00
2012,03,11,13,36,3.00
2012,03,11,13,37,3.10
2012,03,11,13,38,3.00
2012,03,11,13,39,3.00
2012,03,11,13,40,3.00
2012,03,11,13,41,3.00
2012,03,11,13,42,3.00
2012,03,11,13,43,2.90
2012,03,11,13,44,3.00
2012,03,11,13,45,3.00
2012,03,11,13,46,3.10
2012,03,11,13,47,3.20
2012,03,11,13,48,3.20
2012,03,11,13,49,3.30
2012,03,11,13,50,3.30
2012,03,11,13,51,3.30
2012,03,11,13,52,3.40
2012,03,11,13,53,3.40
2012,03,11,13,54,3.40
2012,03,11,13,55,3.50
2012,03,11,13,56,3.60
2012,03,11,13,57,3.60
2012,03,11,13,58,3.70
2012,03,11,13,59,3.80
2012,03,11,14,00,3.90
2012,03,11,14,01,4.00
2012,03,11,14,02,4.10
2012,03,11,14,03,4.20
2012,03,11,14,04,4.30
2012,03,11,14,05,4.40
2012,03,11,14,06,4.50
2012,03,11,14,07,4.60
2012,03,11,14,08,4.70
2012,03,11,14,09,4.80
2012,03,11,14,10,4.80
2012,03,11,14,11,4.80
2012,03,11,14,12,4.90
2012,03,11,14,13,4.90
2012,03,11,14,14,4.90
2012,03,11,14,15,5.00
2012,03,11,14,16,5.10
2012,03,11,14,17,5.10
2012,03,11,14,18,5.10
2012,03,11,14,19,5.20
2012,03,11,14,20,5.20
2012,03,11,14,21,5.20
2012,03,11,14,22,5.20
2012,03,11,14,23,5.30
2012,03,11,14,24,5.40
2012,03,11,14,25,5.40
2012,03,11,14,26,5.40
2012,03,11,14,27,5.40
2012,03,11,14,28,5.40
2012,03,11,14,29,5.40
2012,03,11,14,30,5.40
2012,03,11,14,31,5.40
2012,03,11,14,32,5.40
2012,03,11,14,33,5.40
2012,03,11,14,34,5.40
2012,03,11,14,35,5.50
2012,03,11,14,36,5.50
2012,03,11,14,37,5.50
2012,03,11,14,38,5.40
2012,03,11,14,39,5.30
2012,03,11,14,40,5.20
2012,03,11,14,41,5.10
2012,03,11,14,42,5.10
2012,03,11,14,43,5.10
2012,03,11,14,44,5.00
2012,03,11,14,45,5.00
2012,03,11,14,46,5.00
2012,03,11,14,47,5.00
2012,03,11,14,48,4.90
2012,03,11,14,49,4.90
2012,03,11,14,50,4.80
2012,03,11,14,51,4.80
2012,03,11,14,52,4.80
2012,03,11,14,53,4.90
2012,03,11,14,54,4.90
2012,03,11,14,55,5.00
2012,03,11,14,56,5.00
2012,03,11,14,57,5.00
2012,03,11,14,58,5.10
2012,03,11,14,59,5.20
2012,03,11,15,00,5.20
2012,03,11,15,01,5.10
2012,03,11,15,02,5.10
2012,03,11,15,03,5.10
2012,03,11,15,04,5.20
2012,03,11,15,05,5.20
2012,03,11,15,06,5.20
2012,03,11,15,07,5.20
2012,03,11,15,08,5.20
2012,03,11,15,09,5.10
2012,03,11,15,10,5.10
2012,03,11,15,11,5.10
2012,03,11,15,12,5.10
2012,03,11,15,13,5.10
2012,03,11,15,14,5.10
2012,03,11,15,15,5.20
2012,03,11,15,16,5.20
2012,03,11,15,17,5.20
2012,03,11,15,18,5.20
2012,03,11,15,19,5.10
2012,03,11,15,20,5.10
2012,03,11,15,21,5.00
2012,03,11,15,22,4.80
2012,03,11,15,23,4.60
2012,03,11,15,24,4.40
2012,03,11,15,25,4.20
2012,03,11,15,26,4.00
2012,03,11,15,27,3.90
2012,03,11,15,28,3.80
2012,03,11,15,29,3.70
2012,03,11,15,30,3.60
2012,03,11,15,31,3.60
2012,03,11,15,32,3.40
2012,03,11,15,33,3.40
2012,03,11,15,34,3.30
2012,03,11,15,35,3.20
2012,03,11,15,36,3.20
2012,03,11,15,37,3.20
2012,03,11,15,38,3.20
2012,03,11,15,39,3.20
2012,03,11,15,40,3.20
2012,03,11,15,41,3.30
2012,03,11,15,42,3.30
2012,03,11,15,43,3.40
2012,03,11,15,44,3.40
2012,03,11,15,45,3.50
2012,03,11,15,46,3.50
2012,03,11,15,47,3.60
2012,03,11,15,48,3.60
2012,03,11,15,49,3.60
2012,03,11,15,50,3.60
2012,03,11,15,51,3.60
2012,03,11,15,52,3.70
2012,03,11,15,53,3.70
2012,03,11,15,54,3.70
2012,03,11,15,55,3.70
2012,03,11,15,56,3.70
2012,03,11,15,57,3.70
2012,03,11,15,58,3.70
2012,03,11,15,59,3.70
2012,03,11,16,00,3.70
2012,03,11,16,01,3.70
2012,03,11,16,02,3.70
2012,03,11,16,03,3.70
2012,03,11,16,04,3.60
2012,03,11,16,05,3.60
2012,03,11,16,06,3.70
2012,03,11,16,07,3.70
2012,03,11,16,08,3.70
2012,03,11,16,09,3.70
2012,03,11,16,10,3.70
2012,03,11,16,11,3.60
2012,03,11,16,12,3.60
2012,03,11,16,13,3.50
2012,03,11,16,14,3.40
2012,03,11,16,15,3.30
2012,03,11,16,16,3.20
2012,03,11,16,17,3.20
2012,03,11,16,18,3.20
2012,03,11,16,19,3.20
2012,03,11,16,20,3.20
2012,03,11,16,21,3.20
2012,03,11,16,22,3.20
2012,03,11,16,23,3.20
2012,03,11,16,24,3.10
2012,03,11,16,25,3.10
2012,03,11,16,26,3.00
2012,03,11,16,27,3.00
2012,03,11,16,28,3.00
2012,03,11,16,29,3.00
2012,03,11,16,30,3.00
2012,03,11,16,31,3.10
2012,03,11,16,32,3.10
2012,03,11,16,33,3.10
2012,03,11,16,34,3.10
2012,03,11,16,35,3.20
2012,03,11,16,36,3.20
2012,03,11,16,37,3.20
2012,03,11,16,38,3.30
2012,03,11,16,39,3.30
2012,03,11,16,40,3.30
2012,03,11,16,41,3.30
2012,03,11,16,42,3.40
2012,03,11,16,43,3.40
2012,03,11,16,44,3.40
2012,03,11,16,45,3.50
2012,03,11,16,46,3.50
2012,03,11,16,47,3.60
2012,03,11,16,48,3.60
2012,03,11,16,49,3.70
2012,03,11,16,50,3.70
2012,03,11,16,51,3.80
2012,03,11,16,52,3.80
2012,03,11,16,53,3.80
2012,03,11,16,54,3.80
2012,03,11,16,55,3.90
2012,03,11,16,56,4.00
2012,03,11,16,57,4.10
2012,03,11,16,58,4.10
2012,03,11,16,59,4.10
2012,03,11,17,00,4.20
2012,03,11,17,01,4.20
2012,03,11,17,02,4.20
2012,03,11,17,03,4.10
2012,03,11,17,04,4.10
2012,03,11,17,05,4.00
2012,03,11,17,06,4.00
2012,03,11,17,07,4.00
2012,03,11,17,08,4.00
2012,03,11,17,09,4.00
2012,03,11,17,10,4.00
2012,03,11,17,11,4.10
2012,03,11,17,12,4.10
2012,03,11,17,13,4.10
2012,03,11,17,14,4.20
2012,03,11,17,15,4.20
2012,03,11,17,16,4.30
2012,03,11,17,17,4.30
2012,03,11,17,18,4.30
2012,03,11,17,19,4.30
2012,03,11,17,20,4.40
2012,03,11,17,21,4.40
2012,03,11,17,22,4.50
2012,03,11,17,23,4.60
2012,03,11,17,24,4.60
2012,03,11,17,25,4.60
2012,03,11,17,26,4.60
2012,03,11,17,27,4.60
2012,03,11,17,28,4.60
2012,03,11,17,29,4.60
2012,03,11,17,30,4.60
2012,03,11,17,31,4.60
2012,03,11,17,32,4.60
2012,03,11,17,33,4.60
2012,03,11,17,34,4.60
2012,03,11,17,35,4.60
2012,03,11,17,36,4.60
2012,03,11,17,37,4.60
2012,03,11,17,38,4.70
2012,03,11,17,39,4.70
2012,03,11,17,40,4.70
2012,03,11,17,41,4.70
2012,03,11,17,42,4.70
2012,03,11,17,43,4.70
2012,03,11,17,44,4.70
2012,03,11,17,45,4.70
2012,03,11,17,46,4.70
2012,03,11,17,47,4.70
2012,03,11,17,48,4.70
2012,03,11,17,49,4.70
2012,03,11,17,50,4.70
2012,03,11,17,51,4.70
2012,03,11,17,52,4.70
2012,03,11,17,53,4.70
2012,03,11,17,54,4.70
2012,03,11,17,55,4.70
2012,03,11,17,56,4.70
2012,03,11,17,57,4.70
2012,03,11,17,58,4.70
2012,03,11,17,59,4.70
2012,03,11,18,00,4.70
2012,03,11,18,01,4.70
2012,03,11,18,02,4.70
2012,03,11,18,03,4.70
2012,03,11,18,04,4.70
2012,03,11,18,05,4.70
2012,03,11,18,06,4.70
2012,03,11,18,07,4.70
2012,03,11,18,08,4.70
2012,03,11,18,09,4.70
2012,03,11,18,10,4.70
2012,03,11,18,11,4.60
2012,03,11,18,12,4.60
2012,03,11,18,13,4.50
2012,03,11,18,14,4.40
2012,03,11,18,15,4.30
2012,03,11,18,16,4.10
2012,03,11,18,17,4.00
2012,03,11,18,18,3.80
2012,03,11,18,19,3.70
2012,03,11,18,20,3.60
2012,03,11,18,21,3.50
2012,03,11,18,22,3.40
2012,03,11,18,23,3.30
2012,03,11,18,24,3.20
2012,03,11,18,25,3.20
2012,03,11,18,26,3.10
2012,03,11,18,27,3.10
2012,03,11,18,28,3.00
2012,03,11,18,29,3.00
2012,03,11,18,30,2.90
2012,03,11,18,31,2.90
2012,03,11,18,32,2.80
2012,03,11,18,33,2.80
2012,03,11,18,34,2.80
2012,03,11,18,35,2.80
2012,03,11,18,36,2.80
2012,03,11,18,37,2.80
2012,03,11,18,38,2.80
2012,03,11,18,39,2.70
2012,03,11,18,40,2.70
2012,03,11,18,41,2.70
2012,03,11,18,42,2.70
2012,03,11,18,43,2.70
2012,03,11,18,44,2.70
2012,03,11,18,45,2.80
2012,03,11,18,46,2.80
2012,03,11,18,47,2.80
2012,03,11,18,48,2.80
2012,03,11,18,49,2.90
2012,03,11,18,50,2.90
2012,03,11,18,51,2.90
2012,03,11,18,52,2.90
2012,03,11,18,53,3.00
2012,03,11,18,54,3.00
2012,03,11,18,55,3.00
2012,03,11,18,56,3.00
2012,03,11,18,57,3.00
2012,03,11,18,58,3.00
2012,03,11,18,59,2.90
2012,03,11,19,00,2.90
2012,03,11,19,01,2.90
2012,03,11,19,02,2.90
2012,03,11,19,03,2.90
2012,03,11,19,04,2.90
2012,03,11,19,05,2.90
2012,03,11,19,06,2.80